Location: Unspecified
(0.0000°N, 0.0000°E)
Time: 22:04:00
(UTC+00:00)

Envisat - Pass Details

Date: 17 April 2018
Orbit: 764 x 766 km, 98.2° (Epoch: 19 October)

Event Time Altitude Azimuth Distance (km) Brightness Sun altitude
Exits shadow 19:48:09 50° 15° (NNE) 972 3.4 -26.6°
Drops below altitude 10° 19:51:55 10° 355° (N) 2,292 5.6 -27.6°
Sets 19:54:14 0° 353° (N) 3,215 6.5 -28.1°
